カタログに戻る

STARLINK-32950

運用中通信VLEO
NORAD 63566·PAYLOAD·🇺🇸 United States

打ち上げ Apr 13, 2025 から Cape Canaveral Space Force Station

Loading…

次のパス (今後24時間)

TLE

最新Source: CelesTrak SupGP

元期: Sep 14, 2026, 23:01 UTC

1 63566C 25075U   26257.95951389  .00027567  00000+0  99848-3 0  2570
2 63566  43.0014 281.3787 0001751 269.4152 219.0899 15.27563938    17

AllMySatでSTARLINK-32950をリアルタイム追跡

Download on the App Store